Charleston, WV

3:41 PM EDT on July 23, 2017 (GMT -0400)
Yeager Airport

Weather History for KCRW - May, 2013

Change the Weather History Date:

Monday, May 13, 2013

  Actual Average Record
Temperature  
Mean Temperature 50 °F 63 °F  
Max Temperature 59 °F 74 °F 91 °F (1982)
Min Temperature 40 °F 52 °F 33 °F (1996)
Degree Days  
Heating Degree Days 15 4  
Month to date heating degree days 55 65  
Since 1 July heating degree days 4471 4413  
Cooling Degree Days 0 2  
Month to date cooling degree days 10 19  
Year to date cooling degree days 49 51  
Moisture  
Dew Point 34 °F    
Average Humidity 63    
Maximum Humidity 93    
Minimum Humidity 33    
Precipitation  
Precipitation T in 0.15 in 1.39 in (1955)
Month to date precipitation 2.58 1.91  
Year to date precipitation 13.45 15.25  
Snow  
Snow 0.00 in - - ()
Month to date snowfall 0.0  
Since 1 September snowfall 25.3  
Snow Depth 0.00 in    
Sea Level Pressure  
Sea Level Pressure 30.14 in    
Wind  
Wind Speed 3 mph (North)    
Max Wind Speed 18 mph    
Max Gust Speed 29 mph    
Visibility 10 miles    
Events      
T = Trace of Precipitation, MM = Missing Value Source: NWS Daily Summary

Daily Weather History Graph

Daily Weather History Graph

Search for Another Location

Airport or City:

Trip Planner

Search our weather history database for the weather conditions in past years. The results will help you decide how hot, cold, wet, or windy it might be!

Date:

Astronomy

May. 13, 2013 Rise Set
Actual Time 6:16 AM EDT 8:29 PM EDT
Civil Twilight 5:47 AM EDT 8:58 PM EDT
Nautical Twilight 5:10 AM EDT 9:35 PM EDT
Astronomical Twilight 4:31 AM EDT 10:15 PM EDT
Moon 9:01 AM EDT (5/13) 11:37 PM EDT (5/13)
Length of Visible Light 15h 11m
Length of Day
14h 12m
Waxing Crescent, 12% of the Moon is Illuminated
May 13
Waxing Crescent
May 18
First Quarter
May 25
Full
May 31
Last Quarter
Jun 8
New

Hourly Weather History & Observations

Time (EDT) Temp. Windchill Dew Point Humidity Pressure Visibility Wind Dir Wind Speed Gust Speed Precip Events Conditions
12:54 AM 43.0 °F - 37.0 °F 80% 30.12 in 10.0 mi Calm Calm - N/A   Overcast
1:54 AM 43.0 °F - 37.9 °F 82% 30.12 in 10.0 mi Calm Calm - N/A   Overcast
2:54 AM 43.0 °F - 39.0 °F 86% 30.11 in 10.0 mi Calm Calm - N/A   Overcast
3:54 AM 43.0 °F - 39.0 °F 86% 30.10 in 10.0 mi Calm Calm - N/A   Overcast
4:54 AM 42.1 °F - 37.9 °F 85% 30.10 in 10.0 mi Calm Calm - N/A   Overcast
5:54 AM 41.0 °F - 39.0 °F 93% 30.12 in 10.0 mi Calm Calm - N/A   Mostly Cloudy
6:54 AM 42.1 °F - 39.0 °F 89% 30.14 in 10.0 mi Calm Calm - N/A   Overcast
7:54 AM 42.1 °F 39.2 °F 39.0 °F 89% 30.16 in 10.0 mi SSE 4.6 mph - N/A   Mostly Cloudy
8:54 AM 48.0 °F - 35.1 °F 61% 30.17 in 10.0 mi East 5.8 mph - N/A   Scattered Clouds
9:54 AM 51.1 °F - 32.0 °F 48% 30.17 in 10.0 mi SSE 4.6 mph - N/A   Scattered Clouds
10:54 AM 53.1 °F - 32.0 °F 45% 30.18 in 10.0 mi Variable 3.5 mph - N/A   Scattered Clouds
11:54 AM 53.1 °F - 28.9 °F 40% 30.18 in 10.0 mi Calm Calm - N/A   Mostly Cloudy
12:54 PM 54.0 °F - 28.9 °F 38% 30.17 in 10.0 mi North 5.8 mph - N/A   Mostly Cloudy
1:54 PM 57.0 °F - 28.0 °F 33% 30.15 in 10.0 mi NNW 11.5 mph 16.1 mph N/A   Mostly Cloudy
2:54 PM 59.0 °F - 30.0 °F 33% 30.14 in 10.0 mi WNW 11.5 mph - N/A   Mostly Cloudy
4:54 PM 57.0 °F - 30.0 °F 36% 30.12 in 10.0 mi WNW 8.1 mph - N/A   Mostly Cloudy
5:54 PM 57.0 °F - 30.0 °F 36% 30.12 in 10.0 mi Variable 4.6 mph - 0.00 in   Mostly Cloudy
6:54 PM 57.0 °F - 30.9 °F 37% 30.11 in 10.0 mi North 8.1 mph - N/A   Mostly Cloudy
7:54 PM 55.4 °F - 32.0 °F 41% 30.12 in 10.0 mi NNE 4.6 mph - N/A   Scattered Clouds
8:54 PM 50.0 °F - 35.1 °F 57% 30.15 in 10.0 mi Calm Calm - N/A   Scattered Clouds
9:54 PM 46.9 °F - 36.0 °F 66% 30.18 in 10.0 mi Calm Calm - N/A   Scattered Clouds
10:54 PM 44.1 °F - 36.0 °F 73% 30.19 in 10.0 mi Calm Calm - N/A   Clear
11:54 PM 42.1 °F - 37.9 °F 85% 30.19 in 10.0 mi Calm Calm - N/A   Clear